Flag for Moldova Weather past 2 weeks in Bălți, Moldova

Now
79 °F

Warm.


Feels Like: 79 °F
Forecast: 61 / 90 °F
Wind: 6 mph from Southwest

Location: Baltsi-Leadoveni - The North of Moldova

Current Time: Jul 30, 2014 at 9:11:55 PM

Latest Report: Jul 30, 2014 at 8:30 PM


Visibility: N/A

Pressure: 29.89 "Hg

Humidity: 45%

Dew point: 55 °F

Location of BălțiLocation

Historic Weather in Bălți — Graph

°F

Bălți temperature yesterday

Maximum temperature yesterday: 84 °F (at 2:00 PM)
Minimum temperature yesterday: 66 °F (at 5:00 AM)
Average temperature yesterday: 76 °F

Past Weeks' High & Low Weather Summary

 TemperatureHumidityPressure
High88 °F (Jul 28, 3:30 PM)100% (Jul 23, 3:00 AM)30.09 "Hg (Jul 23, 3:00 AM)
Low59 °F (Jul 16, 5:30 AM)29% (Jul 29, 3:30 PM)29.77 "Hg (Jul 23, 4:00 PM)
Average72 °F70%29.95 "Hg
* Reported Jul 15 8:00 PM — Jul 30 8:00 PM, Bălți, Weather by CustomWeather, © 2014

Note: Actual official high and low records may vary slightly from our data, if they occured in-between our weather recording intervals... More about our weather records

Advertising

Bălți weather history for previous 24 hours

 ConditionsComfort  
Time TempWeatherWind HumidityBarometerVisibility
8:00 PM
Jul 30
81 °FPleasantly warm.7 mph39%29.89 "HgN/A
7:30 PM82 °FSunny.8 mph37%29.89 "Hg10 mi
7:00 PM84 °FPassing clouds.9 mph35%29.89 "HgN/A
6:30 PM84 °FPassing clouds.8 mph35%29.89 "HgN/A
6:00 PM84 °FPassing clouds.7 mph37%29.92 "HgN/A
5:30 PM84 °FPassing clouds.9 mph33%29.92 "HgN/A
4:30 PM84 °FPassing clouds.10 mph33%29.92 "HgN/A
4:00 PM86 °FPassing clouds.12 mph35%29.92 "HgN/A
3:30 PM84 °FPassing clouds.12 mph37%29.95 "HgN/A
3:00 PM86 °FPassing clouds.9 mph31%29.95 "HgN/A
2:30 PM86 °FPassing clouds.10 mph35%29.95 "HgN/A
2:00 PM86 °FPassing clouds.10 mph33%29.95 "HgN/A
1:30 PM84 °FPassing clouds.10 mph35%29.95 "HgN/A
1:00 PM84 °FPassing clouds.10 mph37%29.95 "HgN/A
12:30 PM82 °FPassing clouds.8 mph42%29.95 "HgN/A
12:00 PM82 °FPassing clouds.9 mph45%29.95 "HgN/A
11:30 AM81 °FPassing clouds.9 mph48%29.95 "HgN/A
11:00 AM81 °FPassing clouds.9 mph45%29.95 "HgN/A
10:30 AM79 °FPassing clouds.10 mph51%29.95 "HgN/A
10:00 AM79 °FPassing clouds.9 mph51%29.95 "HgN/A
9:30 AM75 °FPassing clouds.10 mph54%29.95 "HgN/A
9:00 AM73 °FPassing clouds.9 mph61%29.95 "HgN/A
8:30 AM73 °FPassing clouds.7 mph61%29.95 "HgN/A
8:00 AM70 °FMild.7 mph60%29.95 "HgN/A
7:30 AM70 °FMild.7 mph60%29.92 "HgN/A
7:00 AM68 °FMild.8 mph60%29.92 "HgN/A
6:30 AM66 °FMild.8 mph64%29.92 "HgN/A
6:00 AM66 °FMild.8 mph64%29.92 "HgN/A
5:30 AM66 °FMild.8 mph64%29.92 "HgN/A
5:00 AM66 °FMild.8 mph64%29.92 "HgN/A
4:30 AM68 °FMild.7 mph60%29.92 "HgN/A
4:00 AM68 °FMild.7 mph60%29.92 "HgN/A
3:30 AM68 °FMild.7 mph60%29.92 "HgN/A
3:00 AM68 °FMild.7 mph60%29.92 "HgN/A
2:30 AM70 °FMild.5 mph53%29.92 "HgN/A
2:00 AM70 °FMild.5 mph53%29.92 "HgN/A
1:30 AM70 °FMild.5 mph53%29.92 "HgN/A
1:00 AM72 °FMild.6 mph50%29.92 "HgN/A
12:30 AM70 °FMild.5 mph53%29.92 "HgN/A
12:00 AM72 °FMild.6 mph50%29.92 "HgN/A
11:30 PM
Jul 29
72 °FMild.6 mph50%29.92 "HgN/A
11:00 PM72 °FMild.6 mph50%29.92 "HgN/A
10:30 PM72 °FMild.6 mph50%29.92 "Hg5 mi
10:00 PM73 °FMild.7 mph47%29.92 "HgN/A
9:30 PM73 °FMild.7 mph47%29.92 "HgN/A
9:00 PM75 °FMild.7 mph44%29.92 "HgN/A
Weather by CustomWeather, © 2014

See weather overviewHow to use our weather pages